GW0326 Weather Reports


Display with metric or nautical units.
time (UTC)temp
F
wind
direction
speed
MPH
gust
MPH
rain 1hr
in
rain 24hr
in
rain mn
in
humidity
%
barometer
mb
20260510143056 49 0 0.0 0.0 0.00 0.02 0.00 64 1026.7
20260510142544 49 0 0.0 0.0 0.00 0.02 0.00 68 1026.7
20260510142048 48 0 0.0 1.0 0.00 0.02 0.00 69 1026.7
20260510141550 48 0 0.0 1.0 0.00 0.02 0.00 72 1026.7
20260510141047 47 0 0.0 6.0 0.00 0.02 0.00 73 1026.7
20260510140544 46 0 0.0 6.0 0.00 0.02 0.00 77 1026.7
20260510140050 45 0 0.0 8.0 0.00 0.02 0.00 79 1026.7
20260510135544 45 230 1.0 8.0 0.00 0.02 0.00 81 1026.6
20260510135046 44 0 0.0 7.0 0.00 0.02 0.00 82 1026.7
20260510134605 44 0 0.0 4.0 0.00 0.02 0.00 87 1026.7
20260510134044 43 0 0.0 0.0 0.00 0.02 0.00 89 1026.7
20260510133544 42 0 0.0 0.0 0.00 0.02 0.00 90 1026.7
20260510133050 42 0 0.0 0.0 0.00 0.02 0.00 91 1026.8
20260510132544 42 0 0.0 0.0 0.00 0.02 0.00 92 1026.8
20260510132047 41 0 0.0 0.0 0.00 0.02 0.00 92 1026.9
20260510131551 41 0 0.0 0.0 0.00 0.02 0.00 92 1026.8
20260510131044 41 0 0.0 0.0 0.00 0.02 0.00 93 1026.9
20260510130545 41 0 0.0 0.0 0.00 0.02 0.00 94 1026.9
20260510130050 40 0 0.0 0.0 0.00 0.02 0.00 94 1027.0
20260510125545 40 0 0.0 0.0 0.00 0.02 0.00 94 1026.9
20260510125045 40 0 0.0 0.0 0.00 0.02 0.00 94 1026.9
20260510124549 40 0 0.0 0.0 0.00 0.02 0.00 94 1027.0
20260510124045 39 0 0.0 0.0 0.00 0.02 0.00 94 1027.0
20260510123545 39 0 0.0 0.0 0.00 0.02 0.00 93 1027.0
20260510123052 39 0 0.0 0.0 0.00 0.02 0.00 93 1027.1
20260510122544 39 0 0.0 0.0 0.00 0.02 0.00 93 1027.1
20260510122045 39 0 0.0 0.0 0.00 0.02 0.00 94 1027.0
20260510121550 39 0 0.0 0.0 0.00 0.02 0.00 93 1027.0
20260510121043 39 0 0.0 0.0 0.00 0.02 0.00 94 1027.0
20260510120544 39 0 0.0 0.0 0.00 0.02 0.00 93 1027.0
20260510120051 39 0 0.0 0.0 0.00 0.02 0.00 94 1026.9
20260510115544 39 0 0.0 0.0 0.00 0.02 0.00 93 1026.8
20260510115044 39 0 0.0 0.0 0.00 0.02 0.00 93 1026.8
20260510114608 39 0 0.0 0.0 0.00 0.02 0.00 93 1026.8
20260510114043 39 0 0.0 0.0 0.00 0.02 0.00 93 1026.7
20260510113543 39 0 0.0 0.0 0.00 0.02 0.00 93 1026.7
20260510113058 39 0 0.0 0.0 0.00 0.02 0.00 93 1026.6
20260510112543 39 0 0.0 0.0 0.00 0.02 0.00 93 1026.5
20260510112045 39 0 0.0 0.0 0.00 0.02 0.00 94 1026.4
20260510111548 39 0 0.0 3.0 0.00 0.02 0.00 94 1026.4
20260510111045 39 0 0.0 3.0 0.00 0.02 0.00 93 1026.4
20260510110545 39 0 0.0 0.0 0.00 0.02 0.00 94 1026.4
20260510110047 39 0 0.0 0.0 0.00 0.02 0.00 94 1026.4
20260510105545 40 0 0.0 3.0 0.00 0.02 0.00 94 1026.4
20260510105046 40 0 0.0 3.0 0.00 0.02 0.00 94 1026.4
20260510104557 40 0 0.0 5.0 0.00 0.02 0.00 94 1026.4
20260510104045 40 0 0.0 5.0 0.00 0.02 0.00 93 1026.3
20260510103545 40 0 1.0 5.0 0.00 0.02 0.00 93 1026.4
20260510103051 40 0 0.0 5.0 0.00 0.02 0.00 93 1026.4
20260510102547 40 0 1.0 5.0 0.00 0.02 0.00 93 1026.3
20260510102047 40 0 0.0 0.0 0.00 0.02 0.00 93 1026.2
20260510101548 40 0 0.0 0.0 0.00 0.02 0.00 93 1026.2
20260510101047 40 0 0.0 3.0 0.00 0.02 0.00 93 1026.2
20260510100547 40 0 0.0 3.0 0.00 0.02 0.00 93 1026.2
20260510100101 40 0 0.0 3.0 0.00 0.02 0.00 94 1026.1
20260510095545 40 0 0.0 0.0 0.00 0.02 0.00 93 1026.1
20260510095042 40 0 0.0 0.0 0.00 0.02 0.00 93 1026.1
20260510094555 40 0 0.0 0.0 0.00 0.02 0.00 93 1025.9
20260510094045 40 0 0.0 0.0 0.00 0.02 0.00 93 1025.9
20260510093542 40 0 0.0 0.0 0.00 0.02 0.00 93 1025.9
20260510093053 40 0 0.0 1.0 0.00 0.02 0.00 93 1025.9
20260510092546 40 0 0.0 1.0 0.00 0.02 0.00 93 1025.9
20260510092043 40 0 0.0 0.0 0.00 0.02 0.00 93 1025.8
20260510091550 40 0 0.0 0.0 0.00 0.02 0.00 93 1025.9
20260510091043 40 0 0.0 0.0 0.00 0.02 0.00 93 1025.8
20260510090550 40 0 0.0 0.0 0.00 0.02 0.00 93 1025.7
20260510090053 40 0 0.0 0.0 0.00 0.02 0.00 93 1025.6
20260510085546 40 0 0.0 0.0 0.00 0.02 0.00 93 1025.4
20260510085046 40 0 0.0 0.0 0.00 0.02 0.00 93 1025.3
20260510084546 40 0 0.0 0.0 0.00 0.02 0.00 93 1025.2
20260510084043 40 0 0.0 0.0 0.00 0.02 0.00 93 1025.2
20260510083546 40 0 0.0 0.0 0.00 0.02 0.00 93 1025.2
20260510083051 40 0 0.0 0.0 0.00 0.02 0.00 93 1025.1
20260510082545 40 0 0.0 0.0 0.00 0.02 0.00 93 1025.1
20260510082043 40 0 0.0 0.0 0.00 0.02 0.00 93 1025.2
20260510081550 40 0 0.0 0.0 0.00 0.02 0.00 93 1025.2
20260510081045 40 0 0.0 0.0 0.00 0.02 0.00 93 1025.3
20260510080545 40 0 0.0 0.0 0.00 0.02 0.00 93 1025.3
20260510080054 40 0 0.0 0.0 0.00 0.02 0.00 93 1025.3
20260510075544 40 0 0.0 0.0 0.00 0.02 0.00 93 1025.4
20260510075044 40 0 0.0 0.0 0.00 0.02 0.00 93 1025.2
20260510074602 40 0 0.0 0.0 0.00 0.02 0.00 93 1025.2
20260510074045 40 0 0.0 0.0 0.00 0.02 0.00 92 1025.3
20260510073544 40 0 0.0 0.0 0.00 0.02 0.00 92 1025.4
20260510073052 40 0 0.0 0.0 0.00 0.02 0.00 92 1025.5
20260510072545 40 0 0.0 0.0 0.00 0.02 0.00 92 1025.5
20260510072047 40 0 0.0 0.0 0.00 0.02 0.00 92 1025.4
20260510071556 40 0 0.0 0.0 0.00 0.02 0.00 92 1025.7
20260510071045 40 0 0.0 0.0 0.00 0.02 0.00 92 1025.6
20260510070544 40 0 0.0 0.0 0.00 0.02 0.00 92 1025.6
20260510070105 41 0 0.0 0.0 0.00 0.02 0.00 92 1025.6
20260510065545 41 0 0.0 0.0 0.00 0.02 0.00 92 1025.7
20260510065044 41 0 0.0 0.0 0.00 0.02 0.00 92 1025.8
20260510064558 41 0 0.0 0.0 0.00 0.02 0.00 92 1025.9
20260510064044 41 0 0.0 0.0 0.01 0.02 0.00 92 1025.8
20260510063545 41 0 0.0 0.0 0.01 0.02 0.00 92 1025.9
20260510063048 41 0 0.0 0.0 0.01 0.02 0.00 92 1025.9
20260510062545 41 0 0.0 0.0 0.01 0.02 0.00 92 1026.0
20260510062044 41 0 0.0 0.0 0.01 0.02 0.00 91 1026.0
20260510061551 41 0 0.0 0.0 0.01 0.02 0.00 91 1026.0
20260510061048 41 0 0.0 0.0 0.01 0.02 0.00 92 1025.9
20260510060547 41 0 0.0 0.0 0.01 0.02 0.00 92 1026.0
20260510060054 41 0 0.0 0.0 0.01 0.02 0.00 91 1025.9
20260510055543 41 0 0.0 0.0 0.01 0.02 0.02 91 1025.8
20260510055045 41 0 0.0 0.0 0.01 0.02 0.02 91 1026.0
20260510054559 41 0 0.0 0.0 0.01 0.02 0.02 91 1025.9
20260510054044 41 0 0.0 0.0 0.00 0.01 0.01 91 1025.9
20260510053548 41 0 0.0 0.0 0.00 0.01 0.01 91 1025.9
20260510053055 41 0 0.0 0.0 0.00 0.01 0.01 91 1025.9
20260510052545 41 0 0.0 0.0 0.00 0.01 0.01 91 1025.9
20260510052045 41 0 0.0 0.0 0.01 0.01 0.01 91 1026.0
20260510051554 41 0 0.0 0.0 0.01 0.01 0.01 91 1026.1
20260510051049 41 0 0.0 0.0 0.01 0.01 0.01 91 1026.0
20260510050545 41 0 0.0 0.0 0.01 0.01 0.01 90 1026.1
20260510050058 41 0 0.0 2.0 0.01 0.01 0.01 90 1026.2
20260510045549 41 0 0.0 2.0 0.01 0.01 0.01 90 1025.9
20260510045043 41 0 0.0 0.0 0.01 0.01 0.01 90 1025.7
20260510044612 41 0 0.0 0.0 0.01 0.01 0.01 90 1026.3
20260510044047 41 0 0.0 0.0 0.01 0.01 0.01 89 1026.5
20260510043547 41 0 0.0 0.0 0.01 0.01 0.01 89 1026.4
20260510043047 42 0 0.0 0.0 0.01 0.01 0.01 88 1026.0
20260510042544 42 0 0.0 0.0 0.01 0.01 0.01 88 1026.1
20260510042045 42 0 0.0 0.0 0.00 0.00 0.00 87 1026.0
20260510041557 42 0 0.0 0.0 0.00 0.00 0.00 87 1025.9
20260510041047 42 0 0.0 0.0 0.00 0.00 0.00 86 1026.1
20260510040547 42 0 0.0 0.0 0.00 0.00 0.00 85 1026.2
20260510040049 42 0 0.0 0.0 0.00 0.00 0.00 85 1026.4
20260510035545 42 0 0.0 0.0 0.00 0.00 0.00 85 1026.4
20260510035047 42 0 0.0 0.0 0.00 0.00 0.00 85 1026.4
20260510034550 42 0 0.0 0.0 0.00 0.00 0.00 85 1026.3
20260510034043 42 0 0.0 0.0 0.00 0.00 0.00 85 1026.3
20260510033545 42 0 0.0 0.0 0.00 0.00 0.00 85 1026.2
20260510033118 42 0 0.0 0.0 0.00 0.00 0.00 86 1026.0
20260510032546 42 0 0.0 0.0 0.00 0.00 0.00 85 1025.9
20260510032043 42 0 0.0 0.0 0.00 0.00 0.00 86 1025.7
20260510031610 42 0 0.0 0.0 0.00 0.00 0.00 86 1025.6
20260510031048 42 0 0.0 6.0 0.00 0.00 0.00 86 1025.4
20260510030544 42 0 0.0 6.0 0.00 0.00 0.00 86 1025.2
20260510030054 42 0 0.0 3.0 0.00 0.00 0.00 86 1025.0
20260510025545 42 0 0.0 5.0 0.00 0.00 0.00 86 1025.0
20260510025044 42 0 0.0 7.0 0.00 0.00 0.00 86 1024.9
20260510024554 42 0 0.0 11.0 0.00 0.00 0.00 86 1024.7
20260510024044 42 45 1.0 14.0 0.00 0.00 0.00 86 1024.5
20260510023543 42 40 2.0 14.0 0.00 0.00 0.00 86 1024.4
20260510023052 42 67 6.0 14.0 0.00 0.00 0.00 85 1024.4
20260510022545 42 38 4.0 17.0 0.00 0.00 0.00 85 1024.1
20260510022042 42 28 5.0 17.0 0.00 0.00 0.00 85 1023.8
20260510021552 42 29 9.0 18.0 0.00 0.00 0.00 85 1023.7
20260510021046 43 36 6.0 19.0 0.00 0.00 0.00 84 1023.7
20260510020548 43 9 8.0 20.0 0.00 0.00 0.00 84 1023.5
20260510020054 43 0 12.0 20.0 0.00 0.00 0.00 83 1023.5
20260510015544 43 0 9.0 23.0 0.00 0.00 0.00 81 1023.0
20260510015048 44 24 10.0 23.0 0.00 0.00 0.00 80 1022.8
20260510014606 44 57 7.0 19.0 0.00 0.00 0.00 79 1022.6
20260510014044 45 36 6.0 19.0 0.00 0.00 0.00 77 1022.5
20260510013545 45 26 6.0 17.0 0.00 0.00 0.00 75 1022.3
20260510013051 46 65 4.0 16.0 0.00 0.00 0.00 74 1022.2
20260510012545 46 0 0.0 19.0 0.00 0.00 0.00 73 1022.1
20260510012045 47 42 4.0 28.0 0.00 0.00 0.00 71 1021.8
20260510011556 47 59 10.0 28.0 0.00 0.00 0.00 69 1021.4
20260510011049 49 49 9.0 18.0 0.00 0.00 0.00 67 1021.0
20260510010545 50 0 3.0 15.0 0.00 0.00 0.00 64 1021.0
20260510005545 51 24 8.0 21.0 0.00 0.00 0.00 60 1020.2
20260510005048 53 38 7.0 24.0 0.00 0.00 0.00 56 1020.1
20260510004554 56 0 12.0 24.0 0.00 0.00 0.00 48 1019.9
20260510004044 60 34 8.0 19.0 0.00 0.00 0.00 36 1019.7
20260510003545 62 21 1.0 8.0 0.00 0.00 0.00 15 1019.5
20260510003058 62 0 0.0 8.0 0.00 0.00 0.00 13 1019.4
20260510002545 62 0 1.0 7.0 0.00 0.00 0.00 15 1019.4
20260510002044 62 0 1.0 9.0 0.00 0.00 0.00 15 1019.2
20260510001550 62 30 1.0 9.0 0.00 0.00 0.00 14 1019.0
20260510001044 63 0 0.0 9.0 0.00 0.00 0.00 15 1019.1
20260510000545 63 0 0.0 9.0 0.00 0.00 0.00 16 1018.9
20260510000053 63 0 0.0 5.0 0.00 0.00 0.00 15 1018.8
20260509235547 63 215 0.0 7.0 0.00 0.00 0.00 15 1018.7
20260509235045 64 219 1.0 7.0 0.00 0.00 0.00 14 1018.7
20260509234604 64 0 1.0 10.0 0.00 0.00 0.00 14 1018.7
20260509234044 64 0 1.0 10.0 0.00 0.00 0.00 14 1018.7
20260509233549 65 293 1.0 10.0 0.00 0.00 0.00 14 1018.8
20260509233053 65 269 1.0 10.0 0.00 0.00 0.00 13 1018.5
20260509232545 65 40 0.0 7.0 0.00 0.00 0.00 13 1018.5
20260509232045 65 285 0.0 7.0 0.00 0.00 0.00 13 1018.4
20260509231552 65 360 0.0 7.0 0.00 0.00 0.00 13 1018.3
20260509231044 66 178 0.0 7.0 0.00 0.00 0.00 13 1018.2
20260509230544 66 0 1.0 8.0 0.00 0.00 0.00 12 1018.2
20260509230052 66 0 2.0 8.0 0.00 0.00 0.00 13 1018.1
20260509225548 67 0 1.0 6.0 0.00 0.00 0.00 14 1018.1
20260509225046 67 0 1.0 11.0 0.00 0.00 0.00 12 1018.0
20260509224550 67 308 2.0 11.0 0.00 0.00 0.00 12 1018.1
20260509224044 67 230 2.0 8.0 0.00 0.00 0.00 12 1018.0
20260509223545 68 59 1.0 9.0 0.00 0.00 0.00 11 1017.9
20260509223057 68 300 2.0 13.0 0.00 0.00 0.00 10 1018.0
20260509222544 68 360 2.0 13.0 0.00 0.00 0.00 11 1018.0
20260509222045 68 355 2.0 10.0 0.00 0.00 0.00 12 1017.9
20260509221554 68 207 2.0 10.0 0.00 0.00 0.00 12 1017.7
20260509221045 68 284 3.0 10.0 0.00 0.00 0.00 11 1017.8
20260509220544 68 0 2.0 11.0 0.00 0.00 0.00 11 1017.8
20260509220100 68 320 4.0 13.0 0.00 0.00 0.00 11 1017.9
20260509215545 69 248 2.0 18.0 0.00 0.00 0.00 11 1017.8
20260509215045 69 207 4.0 18.0 0.00 0.00 0.00 11 1018.0
20260509214555 70 313 2.0 11.0 0.00 0.00 0.00 12 1017.8
20260509214044 69 221 3.0 13.0 0.00 0.00 0.00 13 1017.7
20260509213544 69 0 3.0 13.0 0.00 0.00 0.00 13 1017.9
20260509213055 70 277 4.0 13.0 0.00 0.00 0.00 14 1017.8
20260509212546 70 13 2.0 15.0 0.00 0.00 0.00 15 1017.8
20260509212044 70 0 5.0 15.0 0.00 0.00 0.00 14 1017.9
20260509211553 70 290 4.0 15.0 0.00 0.00 0.00 13 1017.8
20260509211044 70 203 4.0 12.0 0.00 0.00 0.00 12 1018.0
20260509210545 70 355 4.0 11.0 0.00 0.00 0.00 13 1018.1
20260509210100 70 50 3.0 10.0 0.00 0.00 0.00 13 1018.0
20260509205545 70 0 1.0 14.0 0.00 0.00 0.00 14 1018.0
20260509205046 69 222 2.0 14.0 0.00 0.00 0.00 14 1018.0
20260509204600 69 222 1.0 14.0 0.00 0.00 0.00 15 1018.1
20260509204045 69 13 3.0 12.0 0.00 0.00 0.00 17 1018.0
20260509203545 68 226 1.0 12.0 0.00 0.00 0.00 16 1018.1
20260509203049 68 291 2.0 9.0 0.00 0.00 0.00 18 1018.4
20260509202547 67 0 0.0 14.0 0.00 0.00 0.00 17 1018.3
20260509202045 67 351 1.0 14.0 0.00 0.00 0.00 16 1018.3
20260509201554 68 26 2.0 12.0 0.00 0.00 0.00 16 1018.2
20260509201044 68 241 1.0 12.0 0.00 0.00 0.00 16 1018.2
20260509200544 69 355 5.0 12.0 0.00 0.00 0.00 17 1018.4
20260509200056 68 0 2.0 9.0 0.00 0.00 0.00 16 1018.3
20260509195546 67 306 1.0 12.0 0.00 0.00 0.00 17 1018.6
20260509195047 67 229 3.0 12.0 0.00 0.00 0.00 16 1018.5
20260509194556 67 49 3.0 12.0 0.00 0.00 0.00 17 1018.5
20260509194044 67 40 2.0 8.0 0.00 0.00 0.00 16 1018.4
20260509193545 67 350 1.0 8.0 0.00 0.00 0.00 17 1018.6
20260509193058 67 333 2.0 6.0 0.00 0.00 0.00 16 1018.4
20260509192550 67 0 1.0 9.0 0.00 0.00 0.00 18 1018.5
20260509192045 66 213 2.0 12.0 0.00 0.00 0.00 19 1018.4
20260509191555 66 344 1.0 12.0 0.00 0.00 0.00 19 1018.7
20260509191051 66 302 2.0 10.0 0.00 0.00 0.00 19 1018.6
20260509190546 66 210 0.0 10.0 0.00 0.00 0.00 17 1018.6
20260509185545 65 300 0.0 11.0 0.00 0.00 0.00 17 1018.5
20260509185045 65 360 3.0 12.0 0.00 0.00 0.00 21 1018.6
20260509184550 65 282 4.0 12.0 0.00 0.00 0.00 18 1018.7
20260509184044 65 0 4.0 12.0 0.00 0.00 0.00 16 1018.6
20260509183544 65 227 4.0 12.0 0.00 0.00 0.00 19 1018.6
20260509183052 65 275 3.0 12.0 0.00 0.00 0.00 18 1018.6
20260509182547 65 309 2.0 11.0 0.00 0.00 0.00 17 1018.7
20260509182045 65 335 1.0 11.0 0.00 0.00 0.00 17 1018.7
20260509181602 64 228 2.0 9.0 0.00 0.00 0.00 17 1018.4
20260509181047 65 230 1.0 11.0 0.00 0.00 0.00 18 1018.6
20260509180546 64 0 2.0 11.0 0.00 0.00 0.00 18 1018.8
20260509180059 64 227 2.0 9.0 0.00 0.00 0.00 17 1018.6
20260509175547 64 304 1.0 10.0 0.00 0.00 0.00 18 1018.7
20260509175047 64 291 1.0 10.0 0.00 0.00 0.00 17 1018.9
20260509174601 64 0 1.0 13.0 0.00 0.00 0.00 20 1018.7
20260509174046 63 0 2.0 13.0 0.00 0.00 0.00 22 1018.7
20260509173544 63 0 3.0 12.0 0.00 0.00 0.00 20 1018.7
20260509173107 63 0 0.0 7.0 0.00 0.00 0.00 24 1018.7
20260509172545 62 0 0.0 8.0 0.00 0.00 0.00 22 1018.8
20260509172045 62 267 1.0 10.0 0.00 0.00 0.00 22 1018.9
20260509171558 62 0 0.0 10.0 0.00 0.00 0.00 21 1018.9
20260509171044 62 232 2.0 10.0 0.00 0.00 0.00 24 1019.1
20260509170549 62 0 1.0 8.0 0.00 0.00 0.00 25 1018.8
20260509170052 63 15 1.0 8.0 0.00 0.00 0.00 24 1018.9
20260509165546 63 281 1.0 10.0 0.00 0.00 0.00 24 1018.9
20260509165046 63 0 0.0 14.0 0.00 0.00 0.00 23 1018.8
20260509164555 63 0 2.0 14.0 0.00 0.00 0.00 24 1018.7
20260509164045 63 307 2.0 10.0 0.00 0.00 0.00 24 1019.0
20260509163545 64 261 1.0 10.0 0.00 0.00 0.00 23 1018.7
20260509163048 63 0 0.0 8.0 0.00 0.00 0.00 24 1018.7
20260509162545 63 0 0.0 7.0 0.00 0.00 0.00 23 1018.6
20260509162045 63 296 2.0 9.0 0.00 0.00 0.00 24 1018.5
20260509161554 63 0 0.0 9.0 0.00 0.00 0.00 25 1018.4
20260509161045 62 0 3.0 9.0 0.00 0.00 0.00 24 1018.3
20260509160545 62 0 1.0 8.0 0.00 0.00 0.00 24 1018.2
20260509160048 62 0 0.0 8.0 0.00 0.00 0.00 24 1018.1
20260509155544 63 285 1.0 11.0 0.00 0.00 0.00 26 1018.1
20260509155044 63 213 1.0 11.0 0.00 0.00 0.00 25 1018.0
20260509154600 62 237 0.0 4.0 0.00 0.00 0.00 26 1018.0
20260509154045 62 0 0.0 9.0 0.00 0.00 0.00 24 1017.9
20260509153545 62 280 2.0 9.0 0.00 0.00 0.00 26 1018.1
20260509153049 62 113 0.0 8.0 0.00 0.00 0.00 25 1017.9
20260509152545 61 0 1.0 8.0 0.00 0.00 0.00 25 1018.1
20260509152045 61 0 0.0 15.0 0.00 0.00 0.00 26 1018.2
20260509151553 61 269 4.0 15.0 0.00 0.00 0.00 27 1018.2
20260509151048 61 0 0.0 8.0 0.00 0.00 0.00 26 1018.3
20260509150545 60 31 2.0 5.0 0.00 0.00 0.00 31 1018.3
20260509150052 59 0 0.0 6.0 0.00 0.00 0.00 32 1018.2
20260509145546 59 0 0.0 6.0 0.00 0.00 0.00 31 1018.3
20260509145045 58 0 1.0 6.0 0.00 0.00 0.00 31 1018.3
20260509144602 58 0 0.0 1.0 0.00 0.00 0.00 29 1018.4
20260509144044 57 0 0.0 2.0 0.00 0.00 0.00 33 1018.4
20260509143544 57 0 0.0 2.0 0.00 0.00 0.00 33 1018.2